Aviation Digital Data Service (ADDS)

Output produced by METARs form (1709 UTC 24 April 2017)
found at http://www.aviationweather.gov/adds/metars/
 
OMAA 241700Z 34007KT CAVOK 30/15 Q1007 NOSIG
TAF OMAA 241100Z 2412/2518 32012KT CAVOK 
     BECMG 2418/2420 09005KT 
     BECMG 2507/2509 31011KT
       
OMAA 241700Z 34007KT CAVOK 30/15 Q1007 NOSIG
TAF OMAA 241100Z 2412/2518 32012KT CAVOK 
     BECMG 2418/2420 09005KT 
     BECMG 2507/2509 31011KT
       
OMAD 241700Z 33007KT CAVOK 29/17 Q1007 NOSIG
TAF OMAD 241100Z 2412/2518 33011KT CAVOK 
     BECMG 2418/2420 08006KT 
     BECMG 2506/2508 30010KT
       
OMAL 241700Z 35011KT CAVOK 31/04 Q1010 NOSIG
TAF OMAL 241100Z 2412/2518 31010KT CAVOK 
     BECMG 2417/2419 09006KT 
     BECMG 2507/2509 30011KT
       
OMDB 241700Z 33005KT 300V040 CAVOK 30/15 Q1008 NOSIG
TAF OMDB 241658Z 2418/2600 17005KT CAVOK 
     BECMG 2506/2508 30012KT 
     BECMG 2516/2518 17005KT
       
OMDW 241700Z 07003KT 030V090 CAVOK 28/12 Q1009 NOSIG
TAF OMDW 241658Z 2418/2600 16005KT CAVOK 
     BECMG 2507/2509 32012KT 
     BECMG 2516/2518 18005KT
       
OMFJ 241700Z 27010KT CAVOK 36/03 Q1007 RMK A2974
TAF OMFJ 241700Z 2418/2524 29008KT 8000 MSC 
     PROB30 2423/2503 VRB03KT 5000 HZ FEW020 
     BECMG 2504/2506 08008KT 
     BECMG 2514/2516 VRB03KT
       
OMRK 241700Z 27002KT CAVOK 26/17 Q1008 A2978
TAF OMRK 241658Z 2418/2600 18005KT CAVOK 
     BECMG 2506/2508 30014KT 
     BECMG 2515/2517 18005KT
       
OMSJ 241700Z 11006KT CAVOK 27/16 Q1008
TAF OMSJ 241658Z 2418/2600 16005KT CAVOK 
     BECMG 2506/2508 30012KT 
     BECMG 2515/2517 17005KT
       
OMAL 241700Z 35011KT CAVOK 31/04 Q1010 NOSIG
TAF OMAL 241100Z 2412/2518 31010KT CAVOK 
     BECMG 2417/2419 09006KT 
     BECMG 2507/2509 30011KT
       
OMAD 241700Z 33007KT CAVOK 29/17 Q1007 NOSIG
TAF OMAD 241100Z 2412/2518 33011KT CAVOK 
     BECMG 2418/2420 08006KT 
     BECMG 2506/2508 30010KT
       
OMDB 241700Z 33005KT 300V040 CAVOK 30/15 Q1008 NOSIG
TAF OMDB 241658Z 2418/2600 17005KT CAVOK 
     BECMG 2506/2508 30012KT 
     BECMG 2516/2518 17005KT
       
OMFJ 241700Z 27010KT CAVOK 36/03 Q1007 RMK A2974
TAF OMFJ 241700Z 2418/2524 29008KT 8000 MSC 
     PROB30 2423/2503 VRB03KT 5000 HZ FEW020 
     BECMG 2504/2506 08008KT 
     BECMG 2514/2516 VRB03KT
       
OMRK 241700Z 27002KT CAVOK 26/17 Q1008 A2978
TAF OMRK 241658Z 2418/2600 18005KT CAVOK 
     BECMG 2506/2508 30014KT 
     BECMG 2515/2517 18005KT
       
OMAA 241700Z 34007KT CAVOK 30/15 Q1007 NOSIG
TAF OMAA 241100Z 2412/2518 32012KT CAVOK 
     BECMG 2418/2420 09005KT 
     BECMG 2507/2509 31011KT
       
OMAD 241700Z 33007KT CAVOK 29/17 Q1007 NOSIG
TAF OMAD 241100Z 2412/2518 33011KT CAVOK 
     BECMG 2418/2420 08006KT 
     BECMG 2506/2508 30010KT
       
OMAL 241700Z 35011KT CAVOK 31/04 Q1010 NOSIG
TAF OMAL 241100Z 2412/2518 31010KT CAVOK 
     BECMG 2417/2419 09006KT 
     BECMG 2507/2509 30011KT
       
OMDB 241700Z 33005KT 300V040 CAVOK 30/15 Q1008 NOSIG
TAF OMDB 241658Z 2418/2600 17005KT CAVOK 
     BECMG 2506/2508 30012KT 
     BECMG 2516/2518 17005KT
       
OMDW 241700Z 07003KT 030V090 CAVOK 28/12 Q1009 NOSIG
TAF OMDW 241658Z 2418/2600 16005KT CAVOK 
     BECMG 2507/2509 32012KT 
     BECMG 2516/2518 18005KT
       
OMFJ 241700Z 27010KT CAVOK 36/03 Q1007 RMK A2974
TAF OMFJ 241700Z 2418/2524 29008KT 8000 MSC 
     PROB30 2423/2503 VRB03KT 5000 HZ FEW020 
     BECMG 2504/2506 08008KT 
     BECMG 2514/2516 VRB03KT
       
OMRK 241700Z 27002KT CAVOK 26/17 Q1008 A2978
TAF OMRK 241658Z 2418/2600 18005KT CAVOK 
     BECMG 2506/2508 30014KT 
     BECMG 2515/2517 18005KT
       
OMSJ 241700Z 11006KT CAVOK 27/16 Q1008
TAF OMSJ 241658Z 2418/2600 16005KT CAVOK 
     BECMG 2506/2508 30012KT 
     BECMG 2515/2517 17005KT
       
OMSJ 241700Z 11006KT CAVOK 27/16 Q1008
TAF OMSJ 241658Z 2418/2600 16005KT CAVOK 
     BECMG 2506/2508 30012KT 
     BECMG 2515/2517 17005KT
       
OMAA 241700Z 34007KT CAVOK 30/15 Q1007 NOSIG
TAF OMAA 241100Z 2412/2518 32012KT CAVOK 
     BECMG 2418/2420 09005KT 
     BECMG 2507/2509 31011KT
       
OMAD 241700Z 33007KT CAVOK 29/17 Q1007 NOSIG
TAF OMAD 241100Z 2412/2518 33011KT CAVOK 
     BECMG 2418/2420 08006KT 
     BECMG 2506/2508 30010KT
       
OMAL 241700Z 35011KT CAVOK 31/04 Q1010 NOSIG
TAF OMAL 241100Z 2412/2518 31010KT CAVOK 
     BECMG 2417/2419 09006KT 
     BECMG 2507/2509 30011KT
       
OMDB 241700Z 33005KT 300V040 CAVOK 30/15 Q1008 NOSIG
TAF OMDB 241658Z 2418/2600 17005KT CAVOK 
     BECMG 2506/2508 30012KT 
     BECMG 2516/2518 17005KT
       
OMDW 241700Z 07003KT 030V090 CAVOK 28/12 Q1009 NOSIG
TAF OMDW 241658Z 2418/2600 16005KT CAVOK 
     BECMG 2507/2509 32012KT 
     BECMG 2516/2518 18005KT
       
OMFJ 241700Z 27010KT CAVOK 36/03 Q1007 RMK A2974
TAF OMFJ 241700Z 2418/2524 29008KT 8000 MSC 
     PROB30 2423/2503 VRB03KT 5000 HZ FEW020 
     BECMG 2504/2506 08008KT 
     BECMG 2514/2516 VRB03KT
       
OMRK 241700Z 27002KT CAVOK 26/17 Q1008 A2978
TAF OMRK 241658Z 2418/2600 18005KT CAVOK 
     BECMG 2506/2508 30014KT 
     BECMG 2515/2517 18005KT
       
OMSJ 241700Z 11006KT CAVOK 27/16 Q1008
TAF OMSJ 241658Z 2418/2600 16005KT CAVOK 
     BECMG 2506/2508 30012KT 
     BECMG 2515/2517 17005KT